STARLINK-36238

Last updated on Sun Apr 12 2026 00:02:10 GMT+0000 (Coordinated Universal Time)

1 68563U 26070X 26101.50002315 -.01152998 41938-3 -25057-2 0 9995 2 68563 53.1581 220.1844 0000977 54.2208 157.7721 15.97658310 2601
UTC large
Height (km)
Speed (km/s)
/
Latitude / Longitude
Inclination (degrees)
Orbital Period (minutes)
Azimuth
Elevation
Range (km)
Doppler Factor

Next 0 passes for location: London (51.5072 / 0.1276)

Sorry there are no passes over London.
STARLINK-36238